Waterville, ME

3:27 AM EDT on May 28, 2017 (GMT -0400)
Waterville Lafleur

Weather History for KWVL - May, 2013

Change the Weather History Date:

Monday, May 20, 2013

  Actual Average Record
Temperature  
Mean Temperature 58 °F -  
Max Temperature 69 °F 70 °F 88 °F (1975)
Min Temperature 48 °F 43 °F 29 °F (1991)
Degree Days  
Heating Degree Days 6    
Growing Degree Days 8 (Base 50)    
Moisture  
Dew Point 53 °F    
Average Humidity 88    
Maximum Humidity 100    
Minimum Humidity 64    
Precipitation  
Precipitation 0.72 in - - ()
Sea Level Pressure  
Sea Level Pressure 30.00 in    
Wind  
Wind Speed 2 mph (South)    
Max Wind Speed 7 mph    
Max Gust Speed -    
Visibility 8 miles    
Events      
Averages and records for this station are not official NWS values.
T = Trace of Precipitation, MM = Missing Value Source: NWS Daily Summary

Daily Weather History Graph

Daily Weather History Graph

Search for Another Location

Airport or City:

Trip Planner

Search our weather history database for the weather conditions in past years. The results will help you decide how hot, cold, wet, or windy it might be!

Date:

Astronomy

May. 20, 2013 Rise Set
Actual Time 5:05 AM EDT 8:05 PM EDT
Civil Twilight 4:31 AM EDT 8:40 PM EDT
Nautical Twilight 3:47 AM EDT 9:24 PM EDT
Astronomical Twilight 2:54 AM EDT 10:17 PM EDT
Moon 2:58 PM EDT (5/20) 2:11 AM EDT (5/20)
Length of Visible Light 16h 08m
Length of Day
14h 59m
Waxing Gibbous, 75% of the Moon is Illuminated
May 20
Waxing Gibbous
May 25
Full
May 31
Last Quarter
Jun 8
New
Jun 16
First Quarter

Hourly Weather History & Observations

Time (EDT) Temp. Dew Point Humidity Pressure Visibility Wind Dir Wind Speed Gust Speed Precip Events Conditions
12:15 AM 48.2 °F 46.4 °F 93% 30.20 in 10.0 mi Calm Calm - 0.01 in   Overcast
12:35 AM 48.2 °F 46.4 °F 93% 30.19 in 7.0 mi Calm Calm - 0.01 in   Overcast
12:55 AM 48.2 °F 46.4 °F 93% 30.19 in 7.0 mi Calm Calm - 0.02 in   Overcast
1:15 AM 48.2 °F 46.4 °F 93% 30.18 in 7.0 mi South 3.5 mph - 0.01 in   Overcast
1:35 AM 48.2 °F 48.2 °F 100% 30.17 in 7.0 mi Calm Calm - 0.04 in   Overcast
1:55 AM 48.2 °F 46.4 °F 93% 30.16 in 7.0 mi Calm Calm - 0.08 in   Overcast
2:15 AM 48.2 °F 48.2 °F 100% 30.15 in 7.0 mi Calm Calm - 0.03 in   Overcast
2:35 AM 48.2 °F 48.2 °F 100% 30.14 in 7.0 mi Calm Calm - 0.05 in   Overcast
2:55 AM 48.2 °F 48.2 °F 100% 30.13 in 5.0 mi Calm Calm - 0.09 in   Overcast
3:15 AM 48.2 °F 48.2 °F 100% 30.12 in 5.0 mi Calm Calm - 0.02 in   Overcast
3:35 AM 48.2 °F 48.2 °F 100% 30.11 in 5.0 mi Calm Calm - 0.06 in   Overcast
4:15 AM 50.0 °F 48.2 °F 94% 30.08 in 10.0 mi SSE 3.5 mph - 0.01 in   Overcast
4:35 AM 50.0 °F 48.2 °F 94% 30.07 in 8.0 mi Calm Calm - 0.01 in   Overcast
4:55 AM 50.0 °F 48.2 °F 94% 30.06 in 4.0 mi Calm Calm - 0.01 in   Overcast
5:15 AM 50.0 °F 48.2 °F 94% 30.05 in 2.5 mi South 4.6 mph - 0.02 in   Overcast
5:35 AM 50.0 °F 50.0 °F 100% 30.05 in 4.0 mi Calm Calm - 0.06 in   Overcast
5:55 AM 51.8 °F 50.0 °F 94% 30.05 in 4.0 mi South 3.5 mph - 0.10 in   Overcast
6:15 AM 51.8 °F 50.0 °F 94% 30.04 in 4.0 mi South 4.6 mph - 0.03 in   Overcast
6:35 AM 51.8 °F 51.8 °F 100% 30.03 in 4.0 mi SSW 4.6 mph - 0.08 in   Overcast
6:55 AM 51.8 °F 51.8 °F 100% 30.04 in 7.0 mi SSW 5.8 mph - 0.14 in   Overcast
7:15 AM 51.8 °F 51.8 °F 100% 30.02 in 7.0 mi South 4.6 mph - 0.08 in   Overcast
7:35 AM 51.8 °F 51.8 °F 100% 30.00 in 8.0 mi South 6.9 mph - 0.13 in   Overcast
7:55 AM 51.8 °F 51.8 °F 100% 30.01 in 10.0 mi South 4.6 mph - 0.16 in   Overcast
8:15 AM 51.8 °F 51.8 °F 100% 30.01 in 10.0 mi SSW 5.8 mph - 0.01 in   Overcast
8:35 AM 51.8 °F 51.8 °F 100% 30.00 in 7.0 mi SSW 4.6 mph - 0.02 in   Overcast
8:55 AM 51.8 °F 51.8 °F 100% 30.01 in 10.0 mi SSW 5.8 mph - 0.03 in   Overcast
9:15 AM 51.8 °F 51.8 °F 100% 29.99 in 10.0 mi South 3.5 mph - N/A   Overcast
9:35 AM 51.8 °F 50.0 °F 94% 30.00 in 10.0 mi SSW 4.6 mph - 0.02 in   Overcast
10:15 AM 53.6 °F 51.8 °F 94% 29.99 in 10.0 mi Calm Calm - 0.01 in   Overcast
10:35 AM 53.6 °F 51.8 °F 94% 29.99 in 10.0 mi Calm Calm - 0.01 in   Overcast
10:55 AM 53.6 °F 53.6 °F 100% 29.99 in 10.0 mi SW 4.6 mph - 0.01 in   Overcast
11:35 AM 53.6 °F 53.6 °F 100% 29.97 in 10.0 mi SW 4.6 mph - N/A   Overcast
11:55 AM 55.4 °F 53.6 °F 94% 29.97 in - SW 5.8 mph - N/A   Overcast
12:15 PM 55.4 °F 53.6 °F 94% 29.96 in - Calm Calm - N/A   Overcast
12:36 PM 57.2 °F 55.4 °F 94% 29.95 in - Calm Calm - N/A   Overcast
12:55 PM 57.2 °F 53.6 °F 88% 29.94 in - SE 3.5 mph - N/A   Overcast
1:15 PM 59.0 °F 55.4 °F 88% 29.94 in - East 4.6 mph - N/A   Mostly Cloudy
1:35 PM 60.8 °F 57.2 °F 88% 29.93 in - Calm Calm - N/A   Overcast
1:55 PM 62.6 °F 59.0 °F 88% 29.93 in - Calm Calm - N/A   Mostly Cloudy
2:15 PM 64.4 °F 57.2 °F 77% 29.93 in - NNW 6.9 mph - N/A   Mostly Cloudy
2:55 PM 66.2 °F 57.2 °F 73% 29.92 in - Calm Calm - N/A   Mostly Cloudy
3:15 PM 66.2 °F 57.2 °F 73% 29.91 in - Calm Calm - N/A   Scattered Clouds
3:35 PM 68.0 °F 57.2 °F 68% 29.91 in - Calm Calm - N/A   Partly Cloudy
3:55 PM 69.8 °F 57.2 °F 64% 29.91 in - North 4.6 mph - N/A   Scattered Clouds
4:15 PM 69.8 °F 59.0 °F 68% 29.91 in - Calm Calm - N/A   Mostly Cloudy
4:35 PM 69.8 °F 57.2 °F 64% 29.90 in - East 4.6 mph - N/A   Mostly Cloudy
4:55 PM 69.8 °F 57.2 °F 64% 29.90 in 10.0 mi East 4.6 mph - N/A   Overcast
5:15 PM 68.0 °F 57.2 °F 68% 29.91 in - East 3.5 mph - N/A   Mostly Cloudy
5:35 PM 68.0 °F 57.2 °F 68% 29.91 in - Calm Calm - N/A   Mostly Cloudy
5:55 PM 69.8 °F 59.0 °F 68% 29.92 in - Calm Calm - N/A   Scattered Clouds
6:15 PM 69.8 °F 59.0 °F 68% 29.92 in - Calm Calm - N/A   Partly Cloudy
6:35 PM 69.8 °F 57.2 °F 64% 29.92 in - Calm Calm - N/A   Scattered Clouds
6:55 PM 68.0 °F 59.0 °F 73% 29.93 in - Calm Calm - N/A   Mostly Cloudy
7:15 PM 66.2 °F 59.0 °F 78% 29.94 in - Calm Calm - N/A   Scattered Clouds
7:35 PM 64.4 °F 57.2 °F 77% 29.94 in - Calm Calm - N/A   Partly Cloudy
7:55 PM 64.4 °F 57.2 °F 77% 29.94 in - Calm Calm - N/A   Mostly Cloudy
8:15 PM 62.6 °F 55.4 °F 77% 29.94 in - NE 3.5 mph - N/A   Partly Cloudy
8:35 PM 62.6 °F 55.4 °F 77% 29.94 in - NE 3.5 mph - N/A   Clear
8:55 PM 60.8 °F 55.4 °F 82% 29.96 in - Calm Calm - N/A   Scattered Clouds
9:15 PM 60.8 °F 55.4 °F 82% 29.97 in - Calm Calm - N/A   Mostly Cloudy
9:35 PM 60.8 °F 55.4 °F 82% 29.97 in 10.0 mi Calm Calm - N/A   Mostly Cloudy
10:15 PM 59.0 °F 55.4 °F 88% 29.97 in 10.0 mi Calm Calm - N/A   Mostly Cloudy
10:35 PM 59.0 °F 55.4 °F 88% 29.97 in 10.0 mi Calm Calm - N/A   Overcast
10:55 PM 57.2 °F 55.4 °F 94% 29.97 in 10.0 mi Calm Calm - N/A   Mostly Cloudy
11:35 PM 57.2 °F 55.4 °F 94% 29.98 in 10.0 mi Calm Calm - N/A   Overcast
11:55 PM 57.2 °F 55.4 °F 94% 29.99 in 10.0 mi Calm Calm - N/A   Mostly Cloudy